PRIVATE WETTERSTATION BILLIGHEIM-ALLFELD                       ZURCK
Wetterdaten: Montag, 16.10.2017
Datum Zeit Temp. A. Temp. A. min Temp. A. max Feuchte A. Luftdruck Regen Wind Richtung Richtung Sonnenschein ET Solar Taupunkt Windchill Windben Empfang
16.10.2017 00:00 10,8 C 10,7 C 10,8 C 89 % 1024,7 hPa 0,0 l/m 0,0 km/h (0 Bft) NW 307 0 min 0,000 mm 0 W/m 9,1 C 10,8 C 0,0 km/h (0 Bft) 100 %
16.10.2017 00:10 10,6 C 10,6 C 10,8 C 89 % 1024,8 hPa 0,0 l/m 0,0 km/h (0 Bft) NW 307 0 min 0,000 mm 0 W/m 8,9 C 10,6 C 0,0 km/h (0 Bft) 99 %
16.10.2017 00:20 10,2 C 10,2 C 10,6 C 89 % 1024,8 hPa 0,0 l/m 0,1 km/h (0 Bft) NW 307 0 min 0,000 mm 0 W/m 8,5 C 10,2 C 3,2 km/h (1 Bft) 100 %
16.10.2017 00:30 10,2 C 10,1 C 10,2 C 89 % 1024,8 hPa 0,0 l/m 0,4 km/h (0 Bft) N-NW 327 0 min 0,000 mm 0 W/m 8,5 C 10,2 C 4,8 km/h (1 Bft) 99 %
16.10.2017 00:40 10,4 C 10,2 C 10,4 C 90 % 1024,9 hPa 0,0 l/m 0,0 km/h (0 Bft) N-NW 327 0 min 0,000 mm 0 W/m 8,8 C 10,4 C 0,0 km/h (0 Bft) 100 %
16.10.2017 00:50 10,5 C 10,4 C 10,5 C 90 % 1024,8 hPa 0,0 l/m 0,0 km/h (0 Bft) N-NW 327 0 min 0,000 mm 0 W/m 8,9 C 10,5 C 0,0 km/h (0 Bft) 100 %
16.10.2017 01:00 10,6 C 10,5 C 10,6 C 90 % 1024,7 hPa 0,0 l/m 0,0 km/h (0 Bft) N-NW 327 0 min 0,000 mm 0 W/m 9,0 C 10,6 C 0,0 km/h (0 Bft) 100 %
16.10.2017 01:10 10,2 C 10,2 C 10,6 C 89 % 1024,9 hPa 0,0 l/m 0,0 km/h (0 Bft) N-NW 327 0 min 0,000 mm 0 W/m 8,5 C 10,2 C 0,0 km/h (0 Bft) 99 %
16.10.2017 01:20 9,9 C 9,9 C 10,2 C 89 % 1024,8 hPa 0,0 l/m 0,0 km/h (0 Bft) N-NW 327 0 min 0,000 mm 0 W/m 8,2 C 9,9 C 0,0 km/h (0 Bft) 100 %
16.10.2017 01:30 9,8 C 9,8 C 9,9 C 90 % 1024,9 hPa 0,0 l/m 0,0 km/h (0 Bft) N-NW 327 0 min 0,000 mm 0 W/m 8,2 C 9,8 C 0,0 km/h (0 Bft) 100 %
16.10.2017 01:40 9,7 C 9,7 C 9,8 C 90 % 1024,9 hPa 0,0 l/m 0,0 km/h (0 Bft) N-NW 327 0 min 0,000 mm 0 W/m 8,1 C 9,7 C 0,0 km/h (0 Bft) 100 %
16.10.2017 01:50 9,7 C 9,7 C 9,7 C 90 % 1025,0 hPa 0,0 l/m 0,0 km/h (0 Bft) N-NW 327 0 min 0,000 mm 0 W/m 8,1 C 9,7 C 0,0 km/h (0 Bft) 100 %
16.10.2017 02:00 9,6 C 9,6 C 9,7 C 90 % 1025,0 hPa 0,0 l/m 0,0 km/h (0 Bft) N-NW 327 0 min 0,000 mm 0 W/m 8,0 C 9,6 C 0,0 km/h (0 Bft) 100 %
16.10.2017 02:10 9,5 C 9,5 C 9,6 C 90 % 1025,1 hPa 0,0 l/m 0,0 km/h (0 Bft) N-NW 327 0 min 0,000 mm 0 W/m 7,9 C 9,5 C 0,0 km/h (0 Bft) 100 %
16.10.2017 02:20 9,6 C 9,5 C 9,6 C 90 % 1025,1 hPa 0,0 l/m 0,0 km/h (0 Bft) N-NW 327 0 min 0,000 mm 0 W/m 8,0 C 9,6 C 0,0 km/h (0 Bft) 100 %
16.10.2017 02:30 9,4 C 9,4 C 9,6 C 90 % 1025,2 hPa 0,0 l/m 0,0 km/h (0 Bft) N-NW 327 0 min 0,000 mm 0 W/m 7,8 C 9,4 C 0,0 km/h (0 Bft) 100 %
16.10.2017 02:40 9,3 C 9,3 C 9,4 C 90 % 1025,1 hPa 0,0 l/m 0,1 km/h (0 Bft) N-NW 328 0 min 0,000 mm 0 W/m 7,7 C 9,3 C 3,2 km/h (1 Bft) 98 %
16.10.2017 02:50 9,3 C 9,3 C 9,3 C 90 % 1025,2 hPa 0,0 l/m 0,0 km/h (0 Bft) N-NW 328 0 min 0,000 mm 0 W/m 7,7 C 9,3 C 0,0 km/h (0 Bft) 99 %
16.10.2017 03:00 9,3 C 9,3 C 9,3 C 90 % 1025,2 hPa 0,0 l/m 0,0 km/h (0 Bft) N-NW 328 0 min 0,000 mm 0 W/m 7,7 C 9,3 C 0,0 km/h (0 Bft) 99 %
16.10.2017 03:10 9,3 C 9,3 C 9,3 C 90 % 1025,2 hPa 0,0 l/m 0,1 km/h (0 Bft) N-NW 328 0 min 0,000 mm 0 W/m 7,7 C 9,3 C 3,2 km/h (1 Bft) 99 %
16.10.2017 03:20 9,6 C 9,3 C 9,6 C 90 % 1025,0 hPa 0,0 l/m 0,2 km/h (0 Bft) N-NW 328 0 min 0,000 mm 0 W/m 8,0 C 9,6 C 3,2 km/h (1 Bft) 99 %
16.10.2017 03:30 9,5 C 9,5 C 9,6 C 90 % 1025,0 hPa 0,0 l/m 0,2 km/h (0 Bft) N-NW 329 0 min 0,000 mm 0 W/m 7,9 C 9,5 C 3,2 km/h (1 Bft) 100 %
16.10.2017 03:40 9,3 C 9,3 C 9,5 C 90 % 1025,0 hPa 0,0 l/m 0,0 km/h (0 Bft) N-NW 329 0 min 0,000 mm 0 W/m 7,7 C 9,3 C 0,0 km/h (0 Bft) 100 %
16.10.2017 03:50 8,8 C 8,8 C 9,3 C 90 % 1025,0 hPa 0,0 l/m 0,0 km/h (0 Bft) N-NW 329 0 min 0,000 mm 0 W/m 7,3 C 8,8 C 0,0 km/h (0 Bft) 92 %
16.10.2017 04:00 8,8 C 8,8 C 8,8 C 90 % 1025,0 hPa 0,0 l/m 0,0 km/h (0 Bft) N-NW 329 0 min 0,000 mm 0 W/m 7,3 C 8,8 C 0,0 km/h (0 Bft) 100 %
16.10.2017 04:10 8,9 C 8,8 C 8,9 C 90 % 1025,0 hPa 0,0 l/m 0,0 km/h (0 Bft) N-NW 329 0 min 0,000 mm 0 W/m 7,4 C 8,9 C 0,0 km/h (0 Bft) 100 %
16.10.2017 04:20 8,9 C 8,9 C 8,9 C 90 % 1024,9 hPa 0,0 l/m 0,0 km/h (0 Bft) N-NW 329 0 min 0,000 mm 0 W/m 7,4 C 8,9 C 0,0 km/h (0 Bft) 100 %
16.10.2017 04:30 9,1 C 8,9 C 9,1 C 90 % 1024,8 hPa 0,0 l/m 0,0 km/h (0 Bft) N-NW 329 0 min 0,000 mm 0 W/m 7,5 C 9,1 C 0,0 km/h (0 Bft) 99 %
16.10.2017 04:40 9,5 C 9,1 C 9,5 C 94 % 1024,9 hPa 0,0 l/m 0,0 km/h (0 Bft) N-NW 329 0 min 0,000 mm 0 W/m 8,6 C 9,5 C 0,0 km/h (0 Bft) 100 %
16.10.2017 04:50 10,3 C 9,4 C 10,3 C 91 % 1024,8 hPa 0,0 l/m 0,0 km/h (0 Bft) N-NW 329 0 min 0,000 mm 0 W/m 8,9 C 10,3 C 0,0 km/h (0 Bft) 99 %
16.10.2017 05:00 11,1 C 10,3 C 11,1 C 91 % 1024,7 hPa 0,0 l/m 0,0 km/h (0 Bft) N-NW 331 0 min 0,000 mm 0 W/m 9,7 C 11,1 C 0,0 km/h (0 Bft) 100 %
16.10.2017 05:10 11,2 C 11,1 C 11,3 C 90 % 1024,7 hPa 0,0 l/m 0,0 km/h (0 Bft) N-NW 331 0 min 0,000 mm 0 W/m 9,6 C 11,2 C 0,0 km/h (0 Bft) 100 %
16.10.2017 05:20 10,2 C 10,2 C 11,2 C 90 % 1024,6 hPa 0,0 l/m 0,0 km/h (0 Bft) N-NW 331 0 min 0,000 mm 0 W/m 8,6 C 10,2 C 0,0 km/h (0 Bft) 100 %
16.10.2017 05:30 9,4 C 9,4 C 10,2 C 90 % 1024,8 hPa 0,0 l/m 0,0 km/h (0 Bft) N-NW 331 0 min 0,000 mm 0 W/m 7,8 C 9,4 C 0,0 km/h (0 Bft) 100 %
16.10.2017 05:40 8,8 C 8,8 C 9,4 C 90 % 1024,7 hPa 0,0 l/m 0,0 km/h (0 Bft) N-NW 331 0 min 0,000 mm 0 W/m 7,3 C 8,8 C 0,0 km/h (0 Bft) 100 %
16.10.2017 05:50 8,4 C 8,4 C 8,8 C 90 % 1024,7 hPa 0,0 l/m 0,0 km/h (0 Bft) N-NW 331 0 min 0,000 mm 0 W/m 6,9 C 8,4 C 0,0 km/h (0 Bft) 99 %
16.10.2017 06:00 8,1 C 8,1 C 8,4 C 90 % 1024,6 hPa 0,0 l/m 0,0 km/h (0 Bft) N-NW 331 0 min 0,000 mm 0 W/m 6,6 C 8,1 C 0,0 km/h (0 Bft) 100 %
16.10.2017 06:10 7,9 C 7,9 C 8,1 C 90 % 1024,6 hPa 0,0 l/m 0,0 km/h (0 Bft) N-NW 331 0 min 0,000 mm 0 W/m 6,4 C 7,9 C 0,0 km/h (0 Bft) 100 %
16.10.2017 06:20 8,0 C 7,9 C 8,0 C 90 % 1024,7 hPa 0,0 l/m 0,0 km/h (0 Bft) N-NW 331 0 min 0,000 mm 0 W/m 6,5 C 8,0 C 0,0 km/h (0 Bft) 100 %
16.10.2017 06:30 8,2 C 8,0 C 8,2 C 90 % 1024,7 hPa 0,0 l/m 0,0 km/h (0 Bft) N-NW 331 0 min 0,000 mm 0 W/m 6,7 C 8,2 C 0,0 km/h (0 Bft) 91 %
16.10.2017 06:40 8,1 C 8,1 C 8,2 C 90 % 1024,7 hPa 0,0 l/m 0,0 km/h (0 Bft) N-NW 331 0 min 0,000 mm 0 W/m 6,6 C 8,1 C 0,0 km/h (0 Bft) 100 %
16.10.2017 06:50 8,0 C 7,9 C 8,1 C 90 % 1024,7 hPa 0,0 l/m 0,0 km/h (0 Bft) N-NW 331 0 min 0,000 mm 0 W/m 6,5 C 8,0 C 0,0 km/h (0 Bft) 100 %
16.10.2017 07:00 7,8 C 7,8 C 8,0 C 90 % 1024,7 hPa 0,0 l/m 0,0 km/h (0 Bft) N-NW 331 0 min 0,000 mm 0 W/m 6,3 C 7,8 C 0,0 km/h (0 Bft) 99 %
16.10.2017 07:10 7,4 C 7,4 C 7,8 C 90 % 1024,7 hPa 0,0 l/m 0,0 km/h (0 Bft) N-NW 331 0 min 0,000 mm 0 W/m 5,9 C 7,4 C 0,0 km/h (0 Bft) 99 %
16.10.2017 07:20 7,3 C 7,3 C 7,4 C 90 % 1024,7 hPa 0,0 l/m 0,0 km/h (0 Bft) N-NW 331 0 min 0,000 mm 0 W/m 5,8 C 7,3 C 0,0 km/h (0 Bft) 100 %
16.10.2017 07:30 7,2 C 7,2 C 7,3 C 90 % 1024,7 hPa 0,0 l/m 0,0 km/h (0 Bft) N-NW 331 0 min 0,000 mm 0 W/m 5,7 C 7,2 C 0,0 km/h (0 Bft) 99 %
16.10.2017 07:40 7,0 C 7,0 C 7,2 C 90 % 1024,7 hPa 0,0 l/m 0,0 km/h (0 Bft) N-NW 331 0 min 0,000 mm 0 W/m 5,5 C 7,0 C 0,0 km/h (0 Bft) 100 %
16.10.2017 07:50 6,8 C 6,8 C 7,1 C 90 % 1024,8 hPa 0,0 l/m 0,0 km/h (0 Bft) N-NW 331 0 min 0,000 mm 5 W/m 5,3 C 6,8 C 0,0 km/h (0 Bft) 100 %
16.10.2017 08:00 6,6 C 6,6 C 6,8 C 90 % 1025,0 hPa 0,0 l/m 0,0 km/h (0 Bft) N-NW 331 0 min 0,000 mm 9 W/m 5,1 C 6,6 C 0,0 km/h (0 Bft) 100 %
16.10.2017 08:10 6,3 C 6,3 C 6,6 C 90 % 1025,1 hPa 0,0 l/m 0,0 km/h (0 Bft) N-NW 331 0 min 0,000 mm 14 W/m 4,8 C 6,3 C 0,0 km/h (0 Bft) 100 %
16.10.2017 08:20 6,2 C 6,2 C 6,3 C 90 % 1025,1 hPa 0,0 l/m 0,4 km/h (0 Bft) N-NW 331 0 min 0,000 mm 19 W/m 4,7 C 6,2 C 3,2 km/h (1 Bft) 100 %
16.10.2017 08:30 6,2 C 6,2 C 6,2 C 90 % 1025,2 hPa 0,0 l/m 0,0 km/h (0 Bft) N-NW 331 0 min 0,000 mm 26 W/m 4,7 C 6,2 C 0,0 km/h (0 Bft) 100 %
16.10.2017 08:40 6,3 C 6,2 C 6,3 C 90 % 1025,3 hPa 0,0 l/m 0,0 km/h (0 Bft) N-NW 331 0 min 0,000 mm 30 W/m 4,8 C 6,3 C 0,0 km/h (0 Bft) 100 %
16.10.2017 08:50 6,4 C 6,3 C 6,4 C 90 % 1025,4 hPa 0,0 l/m 0,0 km/h (0 Bft) N-NW 331 0 min 0,000 mm 35 W/m 4,9 C 6,4 C 0,0 km/h (0 Bft) 90 %
16.10.2017 09:00 6,6 C 6,4 C 6,6 C 90 % 1025,4 hPa 0,0 l/m 0,0 km/h (0 Bft) N-NW 331 0 min 0,000 mm 67 W/m 5,1 C 6,6 C 0,0 km/h (0 Bft) 100 %
16.10.2017 09:10 7,1 C 6,6 C 7,1 C 91 % 1025,5 hPa 0,0 l/m 0,0 km/h (0 Bft) N-NW 331 0 min 0,000 mm 151 W/m 5,7 C 7,1 C 0,0 km/h (0 Bft) 99 %
16.10.2017 09:20 7,9 C 7,1 C 7,9 C 91 % 1025,6 hPa 0,0 l/m 0,0 km/h (0 Bft) N-NW 331 10 min 0,000 mm 169 W/m 6,5 C 7,9 C 0,0 km/h (0 Bft) 100 %
16.10.2017 09:30 8,7 C 7,9 C 8,7 C 91 % 1025,8 hPa 0,0 l/m 0,0 km/h (0 Bft) N-NW 331 10 min 0,000 mm 190 W/m 7,3 C 8,7 C 0,0 km/h (0 Bft) 100 %
16.10.2017 09:40 9,2 C 8,7 C 9,2 C 91 % 1025,7 hPa 0,0 l/m 0,0 km/h (0 Bft) N-NW 331 10 min 0,000 mm 211 W/m 7,8 C 9,2 C 0,0 km/h (0 Bft) 99 %
16.10.2017 09:50 9,7 C 9,2 C 9,7 C 91 % 1025,7 hPa 0,0 l/m 0,0 km/h (0 Bft) N-NW 331 10 min 0,000 mm 229 W/m 8,3 C 9,7 C 0,0 km/h (0 Bft) 99 %
16.10.2017 10:00 10,3 C 9,7 C 10,3 C 91 % 1025,7 hPa 0,0 l/m 0,0 km/h (0 Bft) N-NW 331 10 min 0,076 mm 251 W/m 8,9 C 10,3 C 0,0 km/h (0 Bft) 100 %
16.10.2017 10:10 11,2 C 10,3 C 11,2 C 91 % 1025,6 hPa 0,0 l/m 0,0 km/h (0 Bft) N-NW 331 10 min 0,000 mm 274 W/m 9,8 C 11,2 C 0,0 km/h (0 Bft) 100 %
16.10.2017 10:20 12,1 C 11,2 C 12,1 C 91 % 1025,8 hPa 0,0 l/m 0,0 km/h (0 Bft) N-NW 331 10 min 0,000 mm 294 W/m 10,7 C 12,1 C 0,0 km/h (0 Bft) 100 %
16.10.2017 10:30 12,9 C 12,1 C 12,9 C 91 % 1025,8 hPa 0,0 l/m 0,0 km/h (0 Bft) N-NW 331 10 min 0,000 mm 311 W/m 11,5 C 12,9 C 0,0 km/h (0 Bft) 100 %
16.10.2017 10:40 13,8 C 12,9 C 13,8 C 90 % 1025,7 hPa 0,0 l/m 0,0 km/h (0 Bft) N-NW 328 10 min 0,000 mm 320 W/m 12,2 C 13,8 C 1,6 km/h (1 Bft) 100 %
16.10.2017 10:50 14,7 C 13,8 C 14,7 C 90 % 1025,7 hPa 0,0 l/m 0,0 km/h (0 Bft) NW 308 10 min 0,000 mm 350 W/m 13,1 C 14,7 C 1,6 km/h (1 Bft) 100 %
16.10.2017 11:00 15,4 C 14,7 C 15,4 C 88 % 1025,7 hPa 0,0 l/m 0,0 km/h (0 Bft) W-NW 301 10 min 0,153 mm 367 W/m 13,4 C 15,4 C 0,0 km/h (0 Bft) 100 %
16.10.2017 11:10 15,2 C 15,1 C 15,5 C 87 % 1025,7 hPa 0,0 l/m 1,6 km/h (1 Bft) W 268 10 min 0,000 mm 385 W/m 13,0 C 15,2 C 6,4 km/h (2 Bft) 100 %
16.10.2017 11:20 15,7 C 15,2 C 15,7 C 85 % 1025,7 hPa 0,0 l/m 0,5 km/h (0 Bft) W-SW 254 10 min 0,000 mm 401 W/m 13,2 C 15,7 C 4,8 km/h (1 Bft) 100 %
16.10.2017 11:30 15,8 C 15,7 C 15,8 C 81 % 1025,5 hPa 0,0 l/m 3,1 km/h (1 Bft) S 172 10 min 0,000 mm 417 W/m 12,5 C 15,8 C 8,0 km/h (2 Bft) 99 %
16.10.2017 11:40 16,3 C 15,7 C 16,3 C 82 % 1025,4 hPa 0,0 l/m 1,1 km/h (1 Bft) S 175 10 min 0,000 mm 436 W/m 13,2 C 16,3 C 6,4 km/h (2 Bft) 100 %
16.10.2017 11:50 16,7 C 16,3 C 16,7 C 84 % 1025,4 hPa 0,0 l/m 1,0 km/h (0 Bft) S 180 10 min 0,000 mm 450 W/m 14,0 C 16,7 C 8,0 km/h (2 Bft) 100 %
16.10.2017 12:00 17,3 C 16,7 C 17,3 C 80 % 1025,4 hPa 0,0 l/m 3,5 km/h (1 Bft) S 190 10 min 0,228 mm 464 W/m 13,8 C 17,3 C 9,7 km/h (2 Bft) 100 %
16.10.2017 12:10 17,9 C 17,3 C 17,9 C 77 % 1025,5 hPa 0,0 l/m 5,2 km/h (1 Bft) S-SW 197 10 min 0,000 mm 341 W/m 13,8 C 17,9 C 9,7 km/h (2 Bft) 100 %
16.10.2017 12:20 18,1 C 17,9 C 18,1 C 78 % 1025,5 hPa 0,0 l/m 3,6 km/h (1 Bft) S-SW 198 10 min 0,000 mm 475 W/m 14,2 C 18,1 C 9,7 km/h (2 Bft) 100 %
16.10.2017 12:30 18,1 C 18,1 C 18,2 C 77 % 1025,4 hPa 0,0 l/m 0,8 km/h (0 Bft) S-SW 196 10 min 0,000 mm 459 W/m 14,0 C 18,1 C 6,4 km/h (2 Bft) 100 %
16.10.2017 12:40 18,3 C 18,1 C 18,3 C 76 % 1025,5 hPa 0,0 l/m 0,8 km/h (0 Bft) S-SW 195 10 min 0,000 mm 490 W/m 14,0 C 18,3 C 8,0 km/h (2 Bft) 100 %
16.10.2017 12:50 18,6 C 18,3 C 18,6 C 76 % 1025,5 hPa 0,0 l/m 4,4 km/h (1 Bft) S-SW 196 10 min 0,000 mm 492 W/m 14,3 C 18,6 C 8,0 km/h (2 Bft) 100 %
16.10.2017 13:00 18,9 C 18,6 C 18,9 C 73 % 1025,5 hPa 0,0 l/m 0,7 km/h (0 Bft) S-SW 196 10 min 0,254 mm 490 W/m 13,9 C 18,9 C 4,8 km/h (1 Bft) 100 %
16.10.2017 13:10 19,4 C 18,9 C 19,4 C 69 % 1025,4 hPa 0,0 l/m 0,0 km/h (0 Bft) S-SW 196 10 min 0,000 mm 485 W/m 13,6 C 19,4 C 0,0 km/h (0 Bft) 100 %
16.10.2017 13:20 19,8 C 19,4 C 19,8 C 69 % 1025,3 hPa 0,0 l/m 0,0 km/h (0 Bft) S-SW 196 10 min 0,000 mm 185 W/m 13,9 C 19,8 C 1,6 km/h (1 Bft) 100 %
16.10.2017 13:30 20,1 C 19,8 C 20,1 C 66 % 1025,1 hPa 0,0 l/m 0,0 km/h (0 Bft) S-SW 196 0 min 0,000 mm 120 W/m 13,5 C 20,1 C 0,0 km/h (0 Bft) 100 %
16.10.2017 13:40 20,3 C 20,1 C 20,3 C 66 % 1025,0 hPa 0,0 l/m 0,0 km/h (0 Bft) S-SW 196 10 min 0,000 mm 283 W/m 13,7 C 20,3 C 1,6 km/h (1 Bft) 100 %
16.10.2017 13:50 20,6 C 20,3 C 20,6 C 67 % 1025,0 hPa 0,0 l/m 0,0 km/h (0 Bft) S-SW 196 10 min 0,000 mm 464 W/m 14,3 C 20,6 C 1,6 km/h (1 Bft) 100 %
16.10.2017 14:00 20,9 C 20,6 C 20,9 C 66 % 1024,8 hPa 0,0 l/m 0,0 km/h (0 Bft) S-SW 200 10 min 0,178 mm 315 W/m 14,3 C 20,9 C 1,6 km/h (1 Bft) 100 %
16.10.2017 14:10 21,2 C 20,9 C 21,2 C 64 % 1024,7 hPa 0,0 l/m 0,1 km/h (0 Bft) SW 218 10 min 0,000 mm 390 W/m 14,1 C 21,2 C 4,8 km/h (1 Bft) 100 %
16.10.2017 14:20 21,4 C 21,1 C 21,4 C 67 % 1024,7 hPa 0,0 l/m 0,0 km/h (0 Bft) SW 231 10 min 0,000 mm 360 W/m 15,0 C 21,4 C 1,6 km/h (1 Bft) 100 %
16.10.2017 14:30 21,6 C 21,4 C 21,6 C 63 % 1024,7 hPa 0,0 l/m 0,0 km/h (0 Bft) SW 233 10 min 0,000 mm 415 W/m 14,2 C 21,6 C 1,6 km/h (1 Bft) 100 %
16.10.2017 14:40 21,6 C 21,6 C 21,6 C 65 % 1024,5 hPa 0,0 l/m 0,0 km/h (0 Bft) W 277 10 min 0,000 mm 195 W/m 14,7 C 21,6 C 1,6 km/h (1 Bft) 100 %
16.10.2017 14:50 21,6 C 21,6 C 21,6 C 64 % 1024,5 hPa 0,0 l/m 0,0 km/h (0 Bft) W 277 10 min 0,000 mm 229 W/m 14,5 C 21,6 C 1,6 km/h (1 Bft) 99 %
16.10.2017 15:00 21,7 C 21,6 C 21,7 C 63 % 1024,5 hPa 0,0 l/m 0,0 km/h (0 Bft) W 259 10 min 0,178 mm 160 W/m 14,3 C 21,7 C 1,6 km/h (1 Bft) 100 %
16.10.2017 15:10 21,7 C 21,7 C 21,7 C 61 % 1024,6 hPa 0,0 l/m 0,0 km/h (0 Bft) W-SW 242 10 min 0,000 mm 353 W/m 13,8 C 21,7 C 1,6 km/h (1 Bft) 100 %
16.10.2017 15:20 21,8 C 21,7 C 21,8 C 64 % 1024,6 hPa 0,0 l/m 0,0 km/h (0 Bft) W-SW 241 10 min 0,000 mm 345 W/m 14,7 C 21,8 C 1,6 km/h (1 Bft) 100 %
16.10.2017 15:30 21,8 C 21,7 C 21,8 C 63 % 1024,3 hPa 0,0 l/m 0,0 km/h (0 Bft) SW 224 10 min 0,000 mm 330 W/m 14,4 C 21,8 C 1,6 km/h (1 Bft) 100 %
16.10.2017 15:40 21,9 C 21,8 C 21,9 C 64 % 1024,2 hPa 0,0 l/m 0,0 km/h (0 Bft) S-SW 210 10 min 0,000 mm 306 W/m 14,8 C 21,9 C 1,6 km/h (1 Bft) 100 %
16.10.2017 15:50 21,8 C 21,8 C 21,9 C 64 % 1024,1 hPa 0,0 l/m 0,3 km/h (0 Bft) S-SW 192 0 min 0,000 mm 79 W/m 14,7 C 21,8 C 4,8 km/h (1 Bft) 100 %
16.10.2017 16:00 21,8 C 21,8 C 21,8 C 61 % 1024,0 hPa 0,0 l/m 0,1 km/h (0 Bft) S 190 0 min 0,152 mm 74 W/m 13,9 C 21,8 C 4,8 km/h (1 Bft) 100 %
16.10.2017 16:10 21,7 C 21,7 C 21,8 C 61 % 1024,1 hPa 0,0 l/m 0,0 km/h (0 Bft) S 186 0 min 0,000 mm 67 W/m 13,8 C 21,7 C 1,6 km/h (1 Bft) 100 %
16.10.2017 16:20 21,7 C 21,7 C 21,7 C 62 % 1024,1 hPa 0,0 l/m 0,0 km/h (0 Bft) S 171 0 min 0,000 mm 63 W/m 14,1 C 21,7 C 1,6 km/h (1 Bft) 100 %
16.10.2017 16:30 21,6 C 21,6 C 21,7 C 59 % 1024,0 hPa 0,0 l/m 0,0 km/h (0 Bft) S-SO 167 0 min 0,000 mm 58 W/m 13,2 C 21,6 C 1,6 km/h (1 Bft) 100 %
16.10.2017 16:40 21,6 C 21,6 C 21,6 C 59 % 1023,8 hPa 0,0 l/m 0,0 km/h (0 Bft) S-SO 167 0 min 0,000 mm 54 W/m 13,2 C 21,6 C 1,6 km/h (1 Bft) 100 %
16.10.2017 16:50 21,6 C 21,6 C 21,6 C 60 % 1023,8 hPa 0,0 l/m 0,0 km/h (0 Bft) S-SO 167 0 min 0,000 mm 51 W/m 13,5 C 21,6 C 0,0 km/h (0 Bft) 100 %
16.10.2017 17:00 21,5 C 21,5 C 21,6 C 57 % 1023,8 hPa 0,0 l/m 0,0 km/h (0 Bft) S-SO 167 0 min 0,051 mm 47 W/m 12,6 C 21,5 C 1,6 km/h (1 Bft) 100 %
16.10.2017 17:10 21,5 C 21,5 C 21,5 C 56 % 1023,7 hPa 0,0 l/m 0,0 km/h (0 Bft) S-SO 167 0 min 0,000 mm 44 W/m 12,3 C 21,5 C 0,0 km/h (0 Bft) 99 %
16.10.2017 17:20 21,4 C 21,4 C 21,5 C 59 % 1023,7 hPa 0,0 l/m 0,0 km/h (0 Bft) S-SO 167 0 min 0,000 mm 40 W/m 13,0 C 21,4 C 0,0 km/h (0 Bft) 100 %
16.10.2017 17:30 21,1 C 21,1 C 21,4 C 59 % 1023,6 hPa 0,0 l/m 0,0 km/h (0 Bft) S-SO 167 0 min 0,000 mm 37 W/m 12,8 C 21,1 C 0,0 km/h (0 Bft) 99 %
16.10.2017 17:40 20,8 C 20,8 C 21,1 C 57 % 1023,6 hPa 0,0 l/m 0,0 km/h (0 Bft) S-SO 167 0 min 0,000 mm 32 W/m 12,0 C 20,8 C 0,0 km/h (0 Bft) 91 %
16.10.2017 17:50 20,5 C 20,5 C 20,8 C 61 % 1023,5 hPa 0,0 l/m 0,0 km/h (0 Bft) S-SO 167 0 min 0,000 mm 26 W/m 12,7 C 20,5 C 0,0 km/h (0 Bft) 100 %
16.10.2017 18:00 20,2 C 20,2 C 20,5 C 60 % 1023,6 hPa 0,0 l/m 0,0 km/h (0 Bft) S-SO 167 0 min 0,025 mm 21 W/m 12,2 C 20,2 C 0,0 km/h (0 Bft) 100 %
16.10.2017 18:10 19,8 C 19,8 C 20,2 C 62 % 1023,6 hPa 0,0 l/m 0,0 km/h (0 Bft) S-SO 167 0 min 0,000 mm 16 W/m 12,3 C 19,8 C 0,0 km/h (0 Bft) 100 %
16.10.2017 18:20 19,3 C 19,3 C 19,8 C 64 % 1023,6 hPa 0,0 l/m 0,0 km/h (0 Bft) S-SO 167 0 min 0,000 mm 9 W/m 12,3 C 19,3 C 0,0 km/h (0 Bft) 100 %
16.10.2017 18:30 18,8 C 18,8 C 19,3 C 66 % 1023,7 hPa 0,0 l/m 0,0 km/h (0 Bft) S-SO 167 0 min 0,000 mm 0 W/m 12,3 C 18,8 C 0,0 km/h (0 Bft) 100 %
16.10.2017 18:40 18,3 C 18,3 C 18,8 C 67 % 1023,7 hPa 0,0 l/m 0,0 km/h (0 Bft) S-SO 167 0 min 0,000 mm 0 W/m 12,1 C 18,3 C 0,0 km/h (0 Bft) 100 %
16.10.2017 18:50 17,9 C 17,9 C 18,3 C 70 % 1023,7 hPa 0,0 l/m 0,0 km/h (0 Bft) S-SO 167 0 min 0,000 mm 0 W/m 12,3 C 17,9 C 0,0 km/h (0 Bft) 100 %
16.10.2017 19:00 17,4 C 17,4 C 17,9 C 71 % 1023,8 hPa 0,0 l/m 0,0 km/h (0 Bft) S-SO 167 0 min 0,000 mm 0 W/m 12,1 C 17,4 C 0,0 km/h (0 Bft) 100 %
16.10.2017 19:10 16,9 C 16,9 C 17,4 C 74 % 1023,8 hPa 0,0 l/m 0,0 km/h (0 Bft) S-SO 167 0 min 0,000 mm 0 W/m 12,2 C 16,9 C 0,0 km/h (0 Bft) 100 %
16.10.2017 19:20 16,3 C 16,3 C 16,9 C 77 % 1023,7 hPa 0,0 l/m 0,0 km/h (0 Bft) S-SO 167 0 min 0,000 mm 0 W/m 12,3 C 16,3 C 0,0 km/h (0 Bft) 100 %
16.10.2017 19:30 15,7 C 15,7 C 16,3 C 79 % 1023,8 hPa 0,0 l/m 0,0 km/h (0 Bft) S-SO 167 0 min 0,000 mm 0 W/m 12,1 C 15,7 C 0,0 km/h (0 Bft) 100 %
16.10.2017 19:40 15,1 C 15,1 C 15,7 C 81 % 1023,8 hPa 0,0 l/m 0,0 km/h (0 Bft) S-SO 167 0 min 0,000 mm 0 W/m 11,9 C 15,1 C 0,0 km/h (0 Bft) 100 %
16.10.2017 19:50 14,7 C 14,7 C 15,1 C 82 % 1023,8 hPa 0,0 l/m 0,0 km/h (0 Bft) S-SO 167 0 min 0,000 mm 0 W/m 11,7 C 14,7 C 0,0 km/h (0 Bft) 100 %
16.10.2017 20:00 14,3 C 14,3 C 14,7 C 84 % 1023,9 hPa 0,0 l/m 0,0 km/h (0 Bft) S-SO 167 0 min 0,026 mm 0 W/m 11,6 C 14,3 C 0,0 km/h (0 Bft) 100 %
16.10.2017 20:10 13,9 C 13,9 C 14,3 C 85 % 1023,9 hPa 0,0 l/m 0,0 km/h (0 Bft) S-SO 167 0 min 0,000 mm 0 W/m 11,4 C 13,9 C 0,0 km/h (0 Bft) 99 %
16.10.2017 20:20 13,6 C 13,6 C 13,9 C 86 % 1023,8 hPa 0,0 l/m 0,8 km/h (0 Bft) S-SO 167 0 min 0,000 mm 0 W/m 11,3 C 13,6 C 4,8 km/h (1 Bft) 100 %
16.10.2017 20:30 13,3 C 13,3 C 13,6 C 87 % 1023,8 hPa 0,0 l/m 0,0 km/h (0 Bft) S-SO 167 0 min 0,000 mm 0 W/m 11,2 C 13,3 C 0,0 km/h (0 Bft) 99 %
16.10.2017 20:40 13,1 C 13,1 C 13,3 C 88 % 1023,8 hPa 0,0 l/m 0,9 km/h (0 Bft) S-SO 167 0 min 0,000 mm 0 W/m 11,2 C 13,1 C 4,8 km/h (1 Bft) 100 %
16.10.2017 20:50 12,8 C 12,8 C 13,1 C 88 % 1023,9 hPa 0,0 l/m 0,0 km/h (0 Bft) S-SO 167 0 min 0,000 mm 0 W/m 10,9 C 12,8 C 0,0 km/h (0 Bft) 99 %
16.10.2017 21:00 12,6 C 12,6 C 12,8 C 88 % 1023,9 hPa 0,0 l/m 0,4 km/h (0 Bft) S-SO 167 0 min 0,000 mm 0 W/m 10,7 C 12,6 C 3,2 km/h (1 Bft) 100 %
16.10.2017 21:10 12,4 C 12,4 C 12,6 C 89 % 1023,8 hPa 0,0 l/m 0,0 km/h (0 Bft) N 0 0 min 0,000 mm 0 W/m 10,6 C 12,4 C 0,0 km/h (0 Bft) 100 %
16.10.2017 21:20 12,3 C 12,3 C 12,4 C 89 % 1023,9 hPa 0,0 l/m 1,6 km/h (1 Bft) NW 315 0 min 0,000 mm 0 W/m 10,5 C 12,3 C 6,4 km/h (2 Bft) 100 %
16.10.2017 21:30 12,2 C 12,2 C 12,3 C 89 % 1023,8 hPa 0,0 l/m 1,6 km/h (1 Bft) NW 315 0 min 0,000 mm 0 W/m 10,4 C 12,2 C 6,4 km/h (2 Bft) 100 %
16.10.2017 21:40 12,0 C 12,0 C 12,2 C 89 % 1023,8 hPa 0,0 l/m 0,0 km/h (0 Bft) N 0 0 min 0,000 mm 0 W/m 10,2 C 12,0 C 0,0 km/h (0 Bft) 100 %
16.10.2017 21:50 11,8 C 11,8 C 12,0 C 89 % 1023,9 hPa 0,0 l/m 1,6 km/h (1 Bft) NW 315 0 min 0,000 mm 0 W/m 10,0 C 11,8 C 4,8 km/h (1 Bft) 100 %
16.10.2017 22:00 11,6 C 11,6 C 11,8 C 89 % 1023,8 hPa 0,0 l/m 3,2 km/h (1 Bft) N-NW 337 0 min 0,000 mm 0 W/m 9,8 C 11,6 C 4,8 km/h (1 Bft) 99 %
16.10.2017 22:10 11,5 C 11,5 C 11,6 C 89 % 1023,8 hPa 0,0 l/m 3,2 km/h (1 Bft) N-NW 337 0 min 0,000 mm 0 W/m 9,8 C 11,5 C 6,4 km/h (2 Bft) 100 %
16.10.2017 22:20 11,4 C 11,4 C 11,5 C 89 % 1023,8 hPa 0,0 l/m 1,6 km/h (1 Bft) N-NW 337 0 min 0,000 mm 0 W/m 9,7 C 11,4 C 6,4 km/h (2 Bft) 100 %
16.10.2017 22:30 11,2 C 11,2 C 11,4 C 89 % 1023,8 hPa 0,0 l/m 0,0 km/h (0 Bft) N 0 0 min 0,000 mm 0 W/m 9,5 C 11,2 C 0,0 km/h (0 Bft) 100 %
16.10.2017 22:40 11,1 C 11,1 C 11,3 C 89 % 1023,7 hPa 0,0 l/m 0,0 km/h (0 Bft) N 0 0 min 0,000 mm 0 W/m 9,4 C 11,1 C 0,0 km/h (0 Bft) 100 %
16.10.2017 22:50 10,8 C 10,8 C 11,1 C 89 % 1023,8 hPa 0,0 l/m 0,0 km/h (0 Bft) N 0 0 min 0,000 mm 0 W/m 9,1 C 10,8 C 0,0 km/h (0 Bft) 100 %
16.10.2017 23:00 10,8 C 10,8 C 10,9 C 89 % 1023,8 hPa 0,0 l/m 0,0 km/h (0 Bft) N-NW 337 0 min 0,000 mm 0 W/m 9,1 C 10,8 C 3,2 km/h (1 Bft) 100 %
16.10.2017 23:10 10,7 C 10,7 C 10,8 C 89 % 1023,8 hPa 0,0 l/m 0,0 km/h (0 Bft) N 0 0 min 0,000 mm 0 W/m 9,0 C 10,7 C 0,0 km/h (0 Bft) 99 %
16.10.2017 23:20 10,6 C 10,6 C 10,7 C 89 % 1023,8 hPa 0,0 l/m 0,0 km/h (0 Bft) N 0 0 min 0,000 mm 0 W/m 8,9 C 10,6 C 0,0 km/h (0 Bft) 98 %
16.10.2017 23:30 10,4 C 10,4 C 10,6 C 89 % 1023,8 hPa 0,0 l/m 0,0 km/h (0 Bft) N-NW 337 0 min 0,000 mm 0 W/m 8,7 C 10,4 C 3,2 km/h (1 Bft) 98 %
16.10.2017 23:40 10,2 C 10,2 C 10,4 C 89 % 1023,6 hPa 0,0 l/m 0,0 km/h (0 Bft) N 0 0 min 0,000 mm 0 W/m 8,5 C 10,2 C 0,0 km/h (0 Bft) 98 %
16.10.2017 23:50 10,1 C 10,1 C 10,2 C 89 % 1023,6 hPa 0,0 l/m 1,6 km/h (1 Bft) N-NW 337 0 min 0,000 mm 0 W/m 8,4 C 10,1 C 4,8 km/h (1 Bft) 98 %
_ Min-Zeit 08:20 08:20 08:30 17:10 17:50 - 00:00 - - - - - 08:20 08:20 00:00 08:50
Minimum _ 6,2 C 6,2 C 6,2 C 56 % 1023,5 hPa - 0,0 km/h (0 Bft) - - - - - 4,7 C 6,2 C 0,0 km/h (0 Bft) 90 %
_ Max-Zeit 15:40 15:40 15:40 04:40 09:30 00:00 12:10 - - 09:20 13:00 12:50 14:20 15:40 12:00 00:20
Maximum _ 21,9 C 21,8 C 21,9 C 94 % 1025,8 hPa 0,0 l/m 5,2 km/h
S-SW (1 Bft)
- - 10 min 0,254 mm 492 W/m 15,0 C 21,9 C 9,7 km/h
S (2 Bft)
100 %
Durchschnitt _ 13,5 C 13,3 C 13,6 C 82 % 1024,6 hPa #0,0 l/m 0,3 km/h (0 Bft) N-NW - #6:20 h #1,321 mm 223 W/m 10,2 C 13,5 C 1,5 km/h (1 Bft) 99 %
PRIVATE WETTERSTATION BILLIGHEIM-ALLFELD - www.neckar-odenwald-wetter.de - Holger Sonntag